Date,TemperatureHighF,TemperatureAvgF,TemperatureLowF,DewpointHighF,DewpointAvgF,DewpointLowF,HumidityHigh,HumidityAvg,HumidityLow,PressureMaxIn,PressureMinIn,WindSpeedMaxMPH,WindSpeedAvgMPH,GustSpeedMaxMPH,PrecipitationSumIn
2013-1-1,9.5,3.0,-2.4,-3.8,-6.5,-8.9,74,64,54,30.65,30.46,3,1,4,0.00
2013-1-2,12.8,9.1,-5.0,-0.2,-2.2,-11.7,84,60,48,30.64,30.49,15,2,15,0.00
2013-1-3,14.0,5.7,-8.9,-4.7,-8.5,-16.3,70,52,37,30.89,30.80,4,0,4,0.00
2013-1-4,21.3,12.9,-5.4,5.6,1.3,-9.0,84,61,44,30.84,30.60,4,2,6,0.00
2013-1-5,22.9,16.3,10.4,0.1,-1.4,-2.5,61,46,33,30.68,30.67,1,0,1,0.00
2013-1-6,25.7,15.6,-0.3,4.0,0.4,-6.6,74,52,35,30.73,30.41,4,2,4,0.00
2013-1-7,29.0,13.0,-0.8,5.5,-0.2,-6.0,80,59,30,30.41,30.22,5,2,10,0.00
2013-1-8,27.0,19.7,3.4,15.8,9.2,-3.6,72,64,53,30.43,30.35,14,8,14,0.00
2013-1-9,40.7,23.2,5.1,16.5,11.6,1.8,86,65,34,30.74,30.52,4,1,4,0.00
2013-1-10,37.1,26.0,15.7,7.5,5.1,2.8,57,42,25,30.05,29.81,6,3,6,0.00
2013-1-11,13.7,8.8,2.8,7.5,-3.0,-9.9,82,60,35,29.85,29.40,15,9,23,0.00
2013-1-12,4.5,1.3,-4.3,-8.7,-10.7,-12.5,67,57,49,30.22,30.14,3,2,5,0.00
2013-1-13,5.6,4.5,2.3,-5.8,-10.3,-14.0,66,50,42,30.43,30.38,5,3,5,0.00
2013-1-14,1.7,-6.3,-16.2,-8.1,-13.8,-24.4,79,69,60,30.69,30.46,14,4,14,0.00
2013-1-15,4.5,0.8,-7.9,-1.0,-5.2,-12.7,83,76,63,31.01,30.90,3,1,4,0.00
2013-1-16,24.0,15.4,5.1,15.0,8.9,2.3,88,75,67,30.80,30.67,5,2,5,0.00
2013-1-18,31.5,19.7,5.2,9.6,4.9,-0.7,85,55,35,30.71,30.56,5,2,5,0.00
2013-1-19,32.5,17.4,3.9,6.4,2.3,-2.8,73,54,30,30.66,30.53,6,3,7,0.00
2013-1-20,32.8,23.9,10.0,3.7,1.7,-0.1,63,40,26,30.56,30.45,10,5,13,0.00
2013-1-21,31.9,30.5,27.9,7.2,5.3,2.5,37,34,29,30.48,30.45,14,8,15,0.00
2013-1-22,39.1,27.9,7.3,1.3,-1.5,-5.2,59,31,15,30.56,30.48,4,3,5,0.00
2013-1-23,49.9,40.7,20.9,5.0,-1.4,-10.8,33,18,8,30.56,30.42,13,4,13,0.00
2013-1-24,40.9,38.2,26.6,23.9,15.0,6.5,57,39,28,30.22,30.11,14,10,16,0.00
2013-1-25,40.5,35.9,31.4,30.9,28.5,27.2,86,75,61,30.14,30.03,8,3,9,0.01
2013-1-26,44.5,34.8,28.4,29.9,26.4,22.0,95,74,45,29.96,29.63,5,1,5,0.00
2013-1-27,39.3,31.3,16.4,28.5,18.3,8.6,87,60,38,29.70,29.64,9,4,9,0.07
2013-1-28,36.9,26.9,22.1,22.9,19.4,14.8,88,75,40,29.67,29.58,15,6,16,0.00
2013-1-29,12.0,9.0,5.6,-0.3,-2.3,-4.7,76,60,48,29.82,29.80,11,9,13,0.00
2013-1-30,17.9,13.6,7.4,9.0,6.4,3.2,83,73,64,30.26,30.22,13,7,13,0.00
2013-1-31,26.1,23.3,20.4,16.4,14.3,12.8,78,68,57,30.34,30.26,11,6,11,0.00
2013-2-1,25.8,23.9,19.0,18.7,15.4,12.8,90,70,59,30.37,30.20,17,8,17,0.00
2013-2-2,31.8,18.8,9.5,11.8,8.2,5.1,83,65,43,30.55,30.51,5,3,5,0.02
2013-2-4,31.8,30.6,28.8,8.6,7.4,6.0,42,37,34,30.23,30.19,13,9,14,0.00
2013-2-5,41.5,36.6,23.1,18.5,16.2,10.5,58,43,38,30.28,30.10,8,4,9,0.00
2013-2-6,34.3,28.7,20.5,23.5,19.3,17.1,88,70,49,30.11,29.92,18,8,25,0.00
2013-2-7,35.3,29.5,15.2,12.8,6.2,0.8,71,40,23,30.28,30.19,3,1,3,0.00
2013-2-8,39.0,33.9,28.3,17.0,12.5,7.5,62,42,28,30.04,29.81,12,6,15,0.00
2013-2-9,26.7,18.6,13.0,17.4,12.0,8.0,85,76,53,29.58,29.41,17,7,18,0.00
2013-2-10,19.7,11.6,1.8,6.2,2.9,-4.3,79,68,49,30.12,29.84,2,1,5,0.00
2013-2-11,19.1,12.3,5.8,6.1,2.8,0.2,78,66,44,30.27,30.13,4,1,4,0.01
2013-2-12,15.8,10.8,-7.8,0.6,-1.6,-12.8,82,58,48,30.52,30.46,17,6,20,0.00
2013-2-13,24.4,18.4,8.6,13.6,10.2,4.5,85,71,59,30.50,30.31,18,7,18,0.00
2013-2-14,23.8,19.6,11.5,15.0,10.2,5.4,86,67,57,30.29,30.19,19,10,25,0.00
2013-2-15,18.8,17.2,13.7,10.8,8.0,6.1,77,67,58,30.53,30.38,18,12,24,0.00
2013-2-16,33.9,29.6,13.7,13.3,10.3,4.1,65,45,37,30.52,30.31,19,11,20,0.00
2013-2-17,39.6,31.8,12.7,14.0,1.2,-7.9,84,31,14,30.04,29.72,18,9,20,0.00
2013-2-18,21.0,17.4,12.0,6.1,3.2,-0.6,75,54,40,30.15,29.96,15,8,15,0.00
2013-2-19,32.1,26.8,7.6,3.2,-2.4,-6.5,55,28,21,30.35,30.08,8,3,9,0.00
2013-2-20,35.0,29.5,16.9,15.0,9.9,5.9,62,45,30,29.74,29.51,10,4,10,0.00
2013-2-21,22.2,20.2,18.2,14.5,12.8,10.6,82,73,66,29.75,29.63,18,14,20,0.00
2013-2-22,18.0,15.7,12.8,5.3,3.8,2.7,66,59,51,30.10,30.07,5,3,6,0.01
2013-2-23,30.4,25.8,13.9,21.2,14.2,4.0,80,62,44,30.14,29.81,10,5,14,0.00
2013-2-24,19.4,16.1,11.6,8.6,6.0,3.3,78,65,50,30.07,29.79,3,1,5,0.00
2013-2-25,23.3,14.8,2.4,4.3,1.3,-3.4,76,56,38,30.33,30.17,2,1,4,0.08
2013-2-26,16.9,14.4,10.9,5.9,4.9,3.1,75,65,54,30.09,30.04,6,4,13,0.00
2013-2-27,18.6,13.7,3.4,2.6,0.8,-2.7,75,57,46,30.48,30.44,4,2,9,0.01
2013-2-28,22.1,16.7,-0.5,10.0,4.3,-5.2,80,58,48,30.70,30.61,15,9,27,0.00
2013-3-1,29.4,25.5,19.7,17.0,16.1,14.2,79,68,57,30.52,30.45,5,4,16,0.00
2013-3-2,39.8,32.1,23.6,20.0,18.3,15.9,77,58,43,30.48,30.19,2,0,2,0.07
2013-3-3,41.1,35.9,29.3,25.1,18.9,13.6,84,52,36,29.92,29.74,4,1,7,0.00
2013-3-4,30.7,17.3,0.1,22.5,9.1,-5.9,86,70,58,30.23,29.61,7,2,9,0.11
2013-3-5,38.6,20.0,-8.2,8.3,-0.7,-15.1,75,45,14,30.66,30.53,2,0,2,0.13
2013-3-6,47.4,44.0,34.7,10.7,8.2,4.9,30,23,19,30.25,30.05,2,0,4,0.01
2013-3-7,49.4,44.5,31.0,9.1,2.9,-3.3,38,18,12,29.96,29.85,3,1,13,0.00
2013-3-8,44.8,36.7,20.3,17.4,12.0,9.3,62,38,25,29.89,29.69,2,1,11,0.00
2013-3-9,30.4,23.1,15.2,23.1,16.5,5.5,81,76,65,29.98,29.48,5,2,7,0.09
2013-3-10,26.1,19.3,12.1,10.0,6.3,4.5,71,57,48,30.31,30.25,3,3,5,0.00
2013-3-11,29.8,27.2,21.8,20.8,16.8,12.5,78,65,52,30.33,30.16,4,1,9,0.04
2013-3-12,35.2,31.8,25.4,20.8,20.0,18.7,80,62,51,30.20,30.18,4,4,12,0.08
2013-3-14,48.8,40.5,22.1,17.4,14.5,9.8,71,37,21,30.44,30.26,4,1,4,0.00
2013-3-15,52.2,46.6,36.6,17.7,15.3,13.2,45,29,23,30.07,29.88,6,2,6,0.00
2013-3-16,36.8,31.0,23.9,29.7,25.5,20.3,87,80,66,29.80,29.66,3,0,3,0.04
2013-3-17,32.7,28.0,19.4,25.4,16.8,4.8,87,64,36,29.81,29.62,10,5,18,0.10
2013-3-18,29.5,22.4,14.0,18.0,10.5,4.8,84,61,36,30.05,29.95,4,1,5,0.02
2013-3-19,33.7,26.1,12.1,0.3,-5.9,-11.7,41,26,15,30.28,30.14,3,1,6,0.08
2013-3-20,42.3,32.6,11.1,15.9,4.8,-8.1,46,31,25,30.34,30.14,5,1,6,0.00
2013-3-21,31.6,25.0,17.5,26.0,19.6,13.2,88,80,70,29.80,29.53,4,1,7,0.20
2013-3-22,29.4,22.6,9.1,13.9,8.5,3.7,85,58,34,29.87,29.74,12,4,16,0.01
2013-3-24,11.8,7.7,0.0,2.9,-2.6,-9.3,85,63,47,30.44,30.29,13,4,15,0.00
2013-3-25,26.1,14.6,-5.2,-2.6,-5.3,-11.6,73,43,27,30.65,30.54,3,1,6,0.05
2013-3-26,31.8,31.5,31.1,22.5,22.0,21.4,70,68,65,30.12,30.12,2,2,6,0.00
2013-3-27,39.0,39.0,39.0,23.3,23.3,23.3,53,53,53,29.92,29.92,3,3,3,0.00
2013-3-28,45.2,40.7,33.2,21.2,17.2,14.2,61,40,29,30.12,30.07,1,0,4,0.00
2013-3-29,44.5,35.8,25.3,28.4,24.3,17.5,85,65,40,30.14,30.05,5,0,5,0.01
2013-3-30,42.9,40.9,39.9,25.4,21.9,19.2,55,47,42,30.04,30.01,2,1,7,0.02
2013-3-31,49.4,45.3,36.2,12.5,11.8,10.8,37,26,21,30.06,30.01,3,1,4,0.01
2013-4-1,45.4,40.0,29.0,27.9,22.4,15.6,84,51,34,29.98,29.82,4,1,4,0.00
2013-4-2,36.3,31.8,27.9,26.7,24.5,22.3,87,75,59,29.99,29.84,3,0,3,0.04
2013-4-3,38.9,31.8,26.0,23.6,20.5,17.2,78,64,41,30.14,30.13,6,2,7,0.09
2013-4-4,50.1,45.7,32.1,20.2,17.1,14.7,61,33,24,30.13,30.04,1,0,4,0.00
2013-4-5,49.9,41.8,31.3,29.2,22.4,15.3,89,52,27,29.84,29.68,8,2,8,0.00
2013-4-6,43.1,39.0,32.5,24.7,20.6,15.9,65,48,33,29.86,29.80,3,1,5,0.13
2013-4-7,34.9,32.2,29.4,30.3,27.6,25.2,84,83,82,29.69,29.68,1,0,1,0.05
2013-4-10,23.3,17.0,12.1,8.2,5.3,3.2,67,60,52,30.08,30.05,4,2,4,0.00
2013-4-11,33.5,29.9,25.6,23.5,21.3,18.8,75,70,62,29.93,29.86,5,2,7,0.02
2013-4-12,40.3,32.5,27.3,23.7,18.1,9.4,82,58,31,29.90,29.85,4,2,5,0.03
2013-4-14,29.0,25.4,20.2,19.9,9.6,2.0,85,53,35,29.72,29.45,7,4,10,0.15
2013-4-15,30.4,27.0,24.5,24.4,22.3,20.1,86,83,78,29.75,29.63,1,0,4,0.17
2013-4-16,43.1,37.0,25.3,25.5,22.0,17.2,75,56,39,29.73,29.55,4,2,7,0.40
2013-4-17,31.2,24.6,17.5,20.8,16.3,12.1,82,71,53,29.66,29.47,4,2,6,0.01
2013-4-18,18.4,13.6,7.4,3.8,0.7,-2.7,79,57,43,30.50,30.16,17,4,17,0.01
2013-4-19,32.8,28.8,19.4,16.6,12.6,7.0,63,51,42,30.44,30.19,5,2,5,0.02
2013-4-20,38.2,34.2,29.5,25.5,22.2,18.6,82,62,48,29.96,29.91,3,1,3,0.01
2013-4-22,38.6,35.6,30.7,24.9,21.6,15.1,74,57,38,29.82,29.76,4,1,7,0.04
2013-4-23,25.4,20.4,7.2,13.3,9.6,0.1,72,63,52,30.23,29.95,4,3,10,0.00
2013-4-24,35.9,29.3,13.7,15.1,9.8,5.7,70,45,29,30.43,30.39,7,2,0,0.76
2013-4-25,50.1,14.1,8.7,18.0,3.8,1.0,74,66,22,30.39,30.00,5,0,5,0.05
2013-4-26,50.1,24.6,17.4,16.2,12.5,8.7,74,62,20,30.20,30.05,3,0,5,0.00
2013-4-27,50.1,24.6,18.0,14.3,11.7,7.5,73,60,23,30.24,30.15,3,0,5,0.00
2013-4-28,56.5,56.1,55.7,19.1,18.8,18.4,23,23,23,29.83,29.82,3,2,3,0.00
2013-4-29,57.6,53.3,41.2,21.4,18.9,16.3,41,26,20,29.67,29.52,7,4,13,0.00
2013-4-30,56.2,51.9,38.8,31.2,21.6,16.7,74,32,21,29.49,29.38,6,2,10,0.00
2013-5-1,32.7,25.3,18.4,26.9,20.4,13.8,89,81,76,30.35,29.70,0,0,0,0.14
2013-5-2,28.4,24.8,20.0,11.7,8.2,1.8,69,51,33,30.70,30.68,4,2,4,0.01
2013-5-3,38.8,33.5,27.9,10.7,7.7,6.0,48,34,27,30.46,30.39,0,0,0,0.04
2013-5-5,52.0,49.8,45.4,20.6,17.6,14.3,37,28,22,29.92,29.86,2,1,5,0.00
2013-5-6,38.0,36.8,34.6,33.1,32.0,31.1,87,83,80,29.83,29.79,0,0,2,0.04
2013-5-7,49.6,45.6,42.3,31.7,26.1,20.9,65,47,34,29.85,29.83,2,1,8,0.03
2013-5-10,48.6,46.4,43.6,28.5,24.1,19.2,55,42,32,30.16,30.13,2,1,7,0.00
2013-5-11,51.7,43.6,34.9,31.1,27.1,24.2,72,54,34,30.18,30.14,1,0,6,0.00
2013-5-12,59.9,58.7,57.3,24.9,23.4,22.7,26,26,24,30.07,30.05,4,2,4,0.00
2013-5-13,68.8,58.0,41.2,31.3,28.0,23.5,64,35,18,29.95,29.92,0,0,2,0.00
2013-5-16,62.9,57.1,39.6,36.2,27.4,22.2,86,35,23,29.77,29.66,4,2,8,0.01
2013-5-17,66.4,60.6,45.2,19.8,14.8,9.7,36,18,12,29.65,29.59,3,2,3,0.00
2013-5-18,55.3,45.8,32.7,31.4,26.5,20.1,90,53,28,29.77,29.62,4,1,4,0.20
2013-5-19,44.5,40.5,34.6,32.8,30.8,28.9,87,69,56,29.75,29.70,4,2,5,0.21
2013-5-21,46.2,40.3,37.3,27.8,26.2,25.1,62,57,47,29.93,29.89,2,1,8,0.00
2013-5-22,61.8,52.8,42.1,31.5,25.8,17.8,65,39,18,29.76,29.66,2,0,2,0.00
2013-5-23,68.3,61.5,50.5,30.5,23.8,14.3,43,25,13,29.66,29.55,3,2,6,0.00
2013-5-24,67.6,52.2,29.4,29.8,20.7,8.9,82,37,10,29.74,29.57,4,1,6,0.00
2013-5-29,47.7,39.8,33.1,36.5,31.0,27.2,88,72,48,29.67,29.39,4,2,0,0.21
2013-5-30,35.0,32.5,31.8,29.7,29.3,27.3,89,88,74,29.75,29.64,2,0,4,0.10
2013-5-31,51.4,47.0,40.6,20.7,15.7,11.0,42,29,21,29.85,29.83,6,4,7,0.01
2013-6-1,59.5,35.2,29.0,27.1,18.9,15.9,64,52,23,30.05,29.92,2,0,6,0.00
2013-6-2,69.5,62.2,40.9,23.7,19.2,14.8,50,20,14,29.91,29.66,2,1,0,0.00
2013-6-3,65.5,41.2,34.7,33.1,22.7,18.1,58,50,20,29.66,29.56,2,0,5,0.00
2013-6-5,60.5,56.0,51.1,34.0,30.9,27.5,47,38,31,29.76,29.74,2,0,4,0.00
2013-6-10,75.8,70.1,62.1,30.3,28.0,25.5,30,21,17,29.71,29.68,0,0,1,0.00
2013-6-11,74.7,69.3,58.6,24.9,19.1,8.9,21,15,8,29.69,29.55,5,2,10,0.00
2013-6-12,77.6,70.8,57.2,30.5,24.7,20.4,29,18,13,29.77,29.69,4,1,12,0.00
2013-6-13,59.2,58.4,57.6,32.8,29.5,26.1,39,34,28,29.64,29.62,0,0,1,0.00
2013-6-15,70.9,66.2,56.7,25.7,22.4,14.8,29,19,13,29.75,29.67,4,2,11,0.00
2013-6-18,73.2,67.4,58.0,29.0,24.6,21.1,33,21,15,29.64,29.53,3,1,6,0.00
2013-6-21,74.7,69.1,54.4,23.3,18.2,13.1,24,15,10,29.59,29.54,3,1,8,0.00
2013-6-23,58.3,53.7,49.9,35.7,34.6,32.9,55,48,42,29.67,29.61,0,0,0,0.00
2013-6-24,68.6,68.6,68.6,17.4,17.4,17.4,14,14,14,29.60,29.60,2,2,4,0.00
2013-6-26,71.6,63.6,56.7,33.9,32.9,31.5,41,32,25,29.85,29.80,0,0,0,0.00
2013-6-28,82.0,67.9,52.3,48.4,37.7,28.2,73,40,15,29.82,29.74,2,1,2,0.13
2013-6-29,74.2,67.1,52.8,47.6,37.2,30.9,57,35,26,29.81,29.75,3,0,3,0.00
2013-6-30,73.5,65.0,51.6,47.1,41.1,37.2,73,44,28,29.84,29.75,4,1,11,0.04
2013-7-1,70.6,66.1,56.5,42.5,38.1,33.9,56,37,26,29.94,29.87,3,1,7,0.00
2013-7-3,70.4,59.8,48.9,39.5,37.6,32.9,69,46,25,29.81,29.68,3,1,7,0.00
2013-7-4,77.7,56.6,35.5,46.0,36.8,23.9,89,55,14,29.80,29.64,2,0,7,0.02
2013-7-5,67.9,56.8,45.5,46.7,42.1,37.3,82,60,41,29.66,29.52,2,0,7,0.01
2013-7-6,72.1,65.8,56.5,46.9,42.6,40.1,58,44,34,29.64,29.57,4,1,4,0.06
2013-7-7,71.5,66.0,55.7,47.9,42.7,37.9,75,44,31,29.70,29.61,1,0,1,0.03
2013-7-8,75.8,65.8,48.8,48.1,40.6,34.2,91,44,23,29.82,29.77,12,2,13,0.22
2013-7-9,73.9,68.2,53.1,43.3,37.6,32.9,55,34,23,29.91,29.84,4,1,4,0.00
2013-7-10,79.8,70.8,62.7,43.3,39.3,34.8,49,34,21,29.73,29.67,1,0,1,0.00
2013-7-11,79.0,74.3,61.5,45.7,35.6,30.4,56,27,17,29.62,29.50,1,0,2,0.00
2013-7-12,59.0,56.7,51.9,52.7,50.3,47.5,85,79,69,29.74,29.60,0,0,2,0.24
2013-7-13,72.1,63.3,52.6,53.7,48.5,45.6,90,61,39,29.81,29.72,1,0,4,0.34
2013-7-14,69.1,63.0,56.5,53.9,49.6,46.5,72,62,52,29.85,29.81,1,0,1,0.08
2013-7-15,69.3,61.3,54.8,50.8,49.0,47.7,77,65,47,29.73,29.69,0,0,0,0.20
2013-7-16,70.4,66.0,59.8,43.3,42.7,42.2,53,43,36,29.80,29.76,0,0,0,0.00
2013-7-17,76.0,61.9,49.6,54.0,49.8,44.8,88,68,33,29.87,29.78,0,0,2,0.12
2013-7-18,62.6,56.7,52.2,47.5,46.5,44.2,82,69,53,29.93,29.82,2,0,2,0.03
2013-7-19,72.5,66.8,58.1,49.3,45.8,40.1,67,48,31,29.82,29.68,2,0,4,0.00
2013-7-20,77.7,73.0,67.8,30.7,28.8,26.3,25,20,15,29.60,29.58,1,0,7,0.00
2013-7-22,81.1,71.4,48.0,28.6,22.7,15.4,32,17,10,29.69,29.64,1,0,4,0.00
2013-7-23,79.2,69.2,56.0,28.7,24.4,21.2,35,20,12,29.81,29.72,1,0,1,0.00
2013-7-24,72.3,63.3,55.1,45.9,40.6,31.3,71,45,22,29.76,29.68,2,0,4,0.11
2013-7-25,69.1,55.6,44.9,50.3,46.1,37.8,91,74,32,29.95,29.76,1,0,2,0.58
2013-7-26,67.4,56.7,44.8,46.7,43.7,39.5,93,66,36,30.06,30.03,1,0,1,0.00
2013-7-28,58.4,53.1,48.0,50.5,47.9,45.8,92,83,73,29.65,29.60,0,0,0,0.09
2013-7-30,69.1,63.0,56.2,44.5,41.8,38.8,56,46,37,30.05,29.98,0,0,0,0.00
2013-7-31,69.8,68.8,66.8,38.4,36.5,34.3,32,30,29,30.04,29.99,1,0,3,0.00
2013-8-1,63.5,58.2,52.9,44.0,41.8,40.6,63,55,49,29.81,29.77,2,1,2,0.00
2013-8-3,69.4,61.3,56.7,45.7,43.2,40.0,65,53,35,29.79,29.72,4,1,4,0.00
2013-8-4,69.9,56.6,49.9,47.7,45.0,38.7,90,70,32,29.92,29.81,2,1,2,0.39
2013-8-6,70.1,57.5,51.9,45.8,41.3,38.0,68,56,31,29.87,29.77,5,1,8,0.00
2013-8-7,56.0,49.6,44.5,44.3,41.5,36.7,84,74,51,29.88,29.77,0,0,0,0.04
2013-8-9,58.4,49.1,41.9,43.7,40.9,37.7,85,74,58,30.05,29.95,4,1,4,0.09
2013-8-10,61.0,57.7,55.0,35.1,33.7,32.4,47,41,34,29.97,29.94,2,1,2,0.00
2013-8-11,72.5,63.1,54.4,40.9,37.8,34.7,60,42,25,29.83,29.79,3,1,3,0.00
2013-8-12,68.3,61.1,51.6,39.6,35.0,30.9,62,40,26,29.92,29.83,4,1,4,0.00
2013-8-13,62.9,54.7,46.5,46.0,41.3,36.9,79,62,38,30.04,29.91,3,0,6,0.08
2013-8-14,60.5,53.9,45.5,29.8,29.4,28.4,54,40,31,29.98,29.94,1,0,1,0.00
2013-8-15,73.2,70.7,67.1,32.4,26.1,21.2,25,19,16,29.95,29.90,2,1,9,0.00
2013-8-17,69.3,62.7,56.6,34.9,31.2,28.7,44,32,23,29.80,29.77,0,0,1,0.00
2013-8-19,77.9,66.3,42.1,46.6,38.6,31.0,93,42,18,30.00,29.82,1,0,4,0.01
2013-8-20,64.2,59.8,55.7,40.4,39.4,38.0,56,47,38,29.82,29.74,2,1,2,0.00
2013-8-21,76.0,67.1,52.9,43.0,40.5,36.7,65,40,27,29.81,29.72,1,0,1,0.00
2013-8-23,64.0,53.1,41.8,48.3,44.4,39.6,93,75,48,29.83,29.68,1,0,2,0.31
2013-8-24,71.5,60.4,48.9,48.3,44.7,39.2,90,61,33,29.88,29.76,1,0,1,0.17
2013-8-26,70.9,62.1,51.1,53.8,49.7,46.7,88,66,43,29.87,29.80,1,0,1,0.13
2013-8-28,64.3,58.7,55.0,49.1,47.2,44.7,76,66,49,29.88,29.77,0,0,0,0.03
2013-8-29,75.8,61.9,43.8,49.0,45.1,39.8,92,59,28,29.98,29.86,2,0,4,0.04
2013-8-30,62.9,57.8,52.8,49.2,47.4,45.7,80,69,54,29.95,29.86,0,0,0,0.03
2013-8-31,56.3,54.3,52.0,50.5,49.1,48.3,87,83,78,29.86,29.85,0,0,0,0.08
2013-9-1,66.4,59.5,51.0,50.5,47.0,44.7,79,64,50,29.86,29.78,1,0,1,0.08
2013-9-4,73.5,60.3,48.5,52.9,49.5,45.1,93,70,39,29.94,29.84,1,0,3,0.06
2013-9-5,69.1,61.5,52.9,49.5,46.6,44.8,84,60,44,29.92,29.86,1,0,1,0.03
2013-9-7,74.4,62.3,48.8,48.1,44.6,38.9,87,57,28,29.84,29.74,2,0,3,0.08
2013-9-9,65.5,56.8,49.9,48.6,46.3,41.9,91,71,45,29.70,29.56,2,1,6,0.30
2013-9-10,60.5,54.3,46.4,48.9,46.0,43.7,93,74,56,29.83,29.73,1,0,2,0.33
2013-9-11,52.3,51.9,51.3,46.2,45.5,44.7,80,79,78,29.83,29.79,0,0,0,0.00
2013-9-12,63.9,57.2,49.6,49.5,46.8,43.2,89,69,53,29.89,29.78,2,0,9,0.12
2013-9-13,59.9,54.4,44.8,48.0,44.8,40.9,92,71,54,29.69,29.59,0,0,2,0.25
2013-9-14,58.3,51.4,42.6,47.8,43.3,40.4,92,75,55,29.75,29.65,2,0,6,0.16
2013-9-16,61.5,54.9,42.1,43.2,40.2,37.3,83,59,45,29.99,29.88,1,0,1,0.01
2013-9-18,64.8,50.2,40.9,41.9,37.9,31.3,88,67,31,29.75,29.58,3,1,3,0.13
2013-9-20,65.5,55.7,39.2,24.4,21.5,18.1,55,29,16,30.01,29.91,1,0,3,0.00
2013-9-22,41.5,40.2,37.2,38.8,37.5,34.3,91,90,89,29.51,29.45,1,0,3,0.86
2013-9-23,47.3,39.9,30.9,28.8,26.7,24.5,77,60,45,30.05,29.67,4,1,4,0.28
2013-9-24,63.7,52.7,31.8,25.1,20.7,14.2,68,33,15,30.12,29.89,2,0,2,0.00
2013-9-26,66.4,58.9,44.2,27.6,20.0,15.4,34,23,16,29.40,29.28,2,1,7,0.00
2013-9-27,38.6,38.6,38.6,35.1,35.1,35.1,87,87,87,29.39,29.39,1,1,1,0.00
2013-10-5,35.8,29.6,19.1,16.4,14.3,10.4,78,54,39,30.50,30.41,3,1,7,0.11
2013-10-7,59.1,47.1,38.1,26.5,23.5,18.0,59,42,20,29.99,29.98,9,4,9,0.00
2013-10-10,47.7,37.9,29.8,32.9,27.9,24.5,89,70,44,29.45,29.33,2,1,2,0.03
2013-10-11,39.9,35.4,31.3,28.0,26.1,23.5,82,69,59,29.97,29.85,0,0,1,0.17
2013-10-12,50.8,37.9,26.9,22.1,20.5,19.2,75,52,30,30.03,29.96,1,0,6,0.01
2013-10-13,43.9,43.4,43.1,29.7,26.1,22.7,59,51,44,29.84,29.84,2,1,2,0.00
2013-10-16,35.8,35.8,35.8,19.4,19.4,19.4,51,51,51,30.06,30.06,2,2,2,0.00
2013-10-17,38.6,33.7,29.4,14.4,12.1,9.8,53,41,30,30.05,30.02,2,1,2,0.00
2013-10-21,37.2,31.7,26.7,20.8,19.8,18.9,72,62,49,30.21,30.16,1,0,1,0.03
2013-10-26,53.6,42.8,28.5,18.6,16.4,14.0,58,36,25,30.17,30.12,1,0,6,0.00
2013-10-29,44.3,33.6,30.4,27.0,22.9,7.8,86,71,22,29.72,29.70,2,0,2,0.00
2013-11-4,38.0,30.5,9.3,18.5,13.5,4.6,81,52,35,29.89,29.83,1,0,1,0.06
2013-11-5,21.9,15.2,3.9,9.8,6.3,-1.7,77,68,57,30.36,30.02,3,1,3,0.00
2013-11-8,47.3,45.3,38.9,14.8,12.6,9.4,32,26,24,29.95,29.82,7,4,18,0.00
2013-11-9,48.8,46.9,44.6,14.5,14.1,13.5,28,26,25,30.13,30.11,0,0,0,0.00
2013-11-10,49.6,45.0,41.1,14.2,12.2,11.3,30,26,23,30.24,30.21,3,1,8,0.00
2013-11-11,48.2,41.6,29.1,15.3,13.8,12.1,53,34,23,30.42,30.32,3,1,3,0.00
2013-11-17,32.8,27.8,18.4,15.5,13.7,11.4,79,56,43,30.16,29.85,4,2,4,0.09
2013-11-27,38.9,26.2,16.1,15.5,13.3,10.4,78,60,38,30.40,30.34,1,0,1,0.03
2013-11-29,38.3,29.3,15.6,13.6,11.4,8.8,74,49,31,30.42,30.31,2,0,5,0.00
2013-11-30,36.5,19.0,6.9,13.8,5.6,1.8,82,61,23,30.46,30.34,2,0,5,0.00
2013-12-1,32.2,31.6,31.3,18.4,16.1,12.7,58,52,44,30.23,30.19,5,4,8,0.00
2013-12-2,34.1,30.8,26.7,23.4,19.7,15.5,86,64,46,29.87,29.65,4,0,5,0.00
2013-12-5,0.0,-10.3,-19.0,-9.6,-19.0,-26.9,67,64,62,30.41,30.29,0,0,0,0.00
2013-12-7,21.8,12.4,4.8,6.8,3.3,-1.1,77,68,51,30.03,29.91,1,0,1,0.00
2013-12-8,7.6,4.3,-0.4,-3.4,-5.1,-8.2,70,65,56,30.12,29.93,3,1,5,0.00
2013-12-9,1.5,-5.3,-14.6,-10.8,-13.7,-18.7,81,67,53,30.83,30.41,4,2,5,0.00
2013-12-10,27.0,20.1,15.7,8.9,7.2,5.8,72,57,46,30.82,30.58,1,0,1,0.00
2013-12-11,26.3,16.8,3.5,5.4,2.6,-3.2,78,55,38,30.75,30.53,0,0,0,0.07
2013-12-12,31.3,18.8,7.2,9.7,5.8,0.9,75,58,38,30.82,30.48,0,0,0,0.08
2013-12-13,25.7,17.2,11.6,8.7,6.6,3.4,75,63,42,30.37,30.17,4,1,4,0.01
2013-12-14,18.6,14.4,12.4,9.6,8.1,6.3,79,76,58,30.52,30.39,2,1,4,0.00